[[{"header":{"parameterUnit":"m.s-1","parameterCategory":1,"la1":30.2991,"la2":30.254,"lo1":-89.0895,"lo2":-89.0444,"dy":0.0017,"dx":0.0017,"nx":28,"ny":28,"refTime":"2024-08-06T21:00:00:Z","depth":0,"parameterNumber":2,"parameterNumberName":"U-component_of_WINDS"},"data":[0,0,0,0,0,0,0,0,0,0,0,0,0,0,0,0,0,0,0,0,0,0,0,0,0,0,0,0,0,0,0,0,0,0,0,0,0,0,0,0,0,0,0,0,0,0,0,0,0,0,0,0,0,0,0,0,0,0,4.3042,4.3043,0,4.3162,4.3164,4.3165,4.308,4.3076,4.3073,4.3069,4.3198,4.3205,4.3211,0,0,0,0,0,0,0,0,0,0,0,0,0,4.2743,4.2749,4.3042,4.3043,4.3045,4.3162,4.3164,4.3166,4.3081,4.3076,4.3072,4.3067,4.3195,4.3204,4.3212,0,0,0,0,0,0,0,0,0,0,0,0,0,4.287,4.2751,4.3041,4.3017,4.3016,4.3162,4.3164,4.3166,4.3082,4.3076,4.307,4.3065,4.3193,4.3203,4.3213,4.3392,0,0,4.3245,4.325,0,0,0,0,0,0,0,0,4.2862,4.2881,4.3019,4.3019,4.3018,4.31,4.3106,4.3242,4.3083,4.3057,4.3069,4.3062,4.317,4.3182,4.3218,4.3398,4.3404,4.3246,4.3252,4.3257,4.326,0,0,0,0,0,0,0,4.2854,4.2875,4.309,4.3021,4.302,4.3001,4.3013,4.3131,4.3144,4.3059,4.3053,4.3068,4.3169,4.3208,4.322,4.3406,4.3246,4.3255,4.3262,4.3266,4.3742,4.3748,0,0,0,0,0,0,4.2847,4.2868,4.3086,4.3093,4.2924,4.3011,4.3024,4.308,4.3143,4.3147,4.3073,4.3064,4.3193,4.3208,4.3224,4.344,4.3257,4.3267,4.3273,4.3735,4.3743,4.375,0,0,0,0,0,0,4.2841,4.2867,4.3081,4.2979,4.3005,4.3022,4.3086,4.3085,4.3124,4.3153,4.3156,4.311,4.3189,4.3209,4.3351,4.3443,4.3271,4.3281,4.3728,4.3738,4.3746,4.3871,0,0,0,0,0,0,4.2832,4.2865,4.2932,4.2981,4.3011,4.3205,4.3091,4.3092,4.3141,4.3131,4.3189,4.3193,4.3186,4.3336,4.3362,4.3454,4.3289,4.372,4.3732,4.3743,4.3859,4.3884,4.3905,0,0,0,0,0,4.2822,4.2963,4.2936,4.2963,4.3095,4.321,4.3227,4.3215,4.3149,4.3218,4.3237,4.3191,4.3428,4.3351,4.3379,4.3477,4.3714,4.3729,4.3742,4.3849,4.3879,4.3905,0,0,0,0,0,0,4.2926,4.2969,4.2939,4.31,4.3152,4.3196,4.3282,4.3247,4.332,4.3307,4.329,4.3304,4.3453,4.3478,4.3392,4.3654,4.3561,4.3582,4.3632,4.3661,4.3684,4.3675,4.3298,0,0,0,0,0,4.2967,4.3056,4.3089,4.3228,4.3256,4.3265,4.3314,4.33,4.3354,4.3376,4.3405,4.346,4.3547,4.3605,4.3687,4.3862,4.3874,4.3942,4.3965,4.3984,4.4003,4.4099,4.4131,4.3797,4.3797,4.3796,0,0,4.3055,4.3089,4.3146,4.325,4.3289,4.3383,4.3284,4.3387,4.3457,4.3392,4.3528,4.3551,4.3612,4.3772,4.3843,4.3798,4.4098,4.4002,4.4017,4.4026,4.4117,4.4149,4.4177,4.3807,4.3805,4.3803,0,0,4.3262,4.3296,4.3416,4.3456,4.3515,4.352,4.3549,4.3598,4.3611,4.3746,4.37,4.3784,4.3933,4.3979,4.4022,4.4247,4.4209,4.4274,4.4395,4.449,4.4516,4.4539,4.4622,4.4651,4.4292,4.4293,4.4293,0,4.3363,4.3502,4.3483,4.359,4.3638,4.3581,4.3704,4.3745,4.3828,4.3864,4.3811,4.3998,4.4035,4.4205,4.426,4.4296,4.4331,4.4268,4.4513,4.4536,4.4558,4.4637,4.4667,4.43,4.4299,4.4299,4.4298,0,4.3625,4.3721,4.3812,4.3892,4.395,4.4065,4.4065,4.4127,4.4108,4.4119,4.4259,4.43,4.439,4.4429,4.4412,4.4598,4.4568,4.4515,4.4421,4.4598,4.4672,4.4701,4.4311,4.4309,4.4306,4.4304,0,0,4.3902,4.397,4.4004,4.4041,4.4102,4.4177,4.429,4.4376,4.443,4.4489,4.4585,4.4713,4.4664,4.4713,4.4701,4.4783,4.4961,4.4719,4.4721,4.4765,4.5172,4.5214,4.5248,4.4935,4.4941,4.4945,4.5167,0,4.4115,4.4309,4.4296,4.4481,4.4571,4.4519,4.4617,4.4667,4.468,4.476,4.4775,4.4867,4.4794,4.4823,4.4902,4.4923,4.5043,4.4906,4.5027,4.5031,4.5016,4.5287,4.5331,4.5539,4.5196,4.5201,4.5204,0,4.4388,4.4456,4.465,4.4698,4.4735,4.4824,4.4903,4.4979,4.5034,4.5038,4.5093,4.5067,4.5183,4.5085,4.5246,4.5153,4.5201,4.5219,4.5227,4.524,4.513,4.5309,4.5604,4.5637,4.5249,4.5245,4.5242,0,4.4575,4.4714,4.4848,4.4881,4.494,4.5004,4.5031,4.5081,4.5134,4.5203,4.5238,4.532,4.5366,4.5432,4.5429,4.5357,4.5594,4.5495,4.5603,4.5603,4.5657,4.5654,4.5966,4.5684,4.5683,4.5683,4.5682,0,4.4815,4.4936,4.4933,4.5016,4.515,4.5134,4.5269,4.529,4.5334,4.5422,4.5381,4.5464,4.5455,4.554,4.5538,4.5673,4.5694,4.5702,4.5701,4.5707,4.5707,4.5741,4.5727,4.5691,4.5689,4.5688,4.5686,0,4.5047,4.5049,4.5192,4.5236,4.5249,4.5347,4.5385,4.5465,4.5474,4.5586,4.5611,4.5627,4.5724,4.5728,4.584,4.5839,4.6005,4.5986,4.5986,4.5983,4.6092,4.6083,4.6439,4.6486,4.6171,4.6174,4.6176,0,4.5201,4.5292,4.5346,4.54,4.5432,4.5521,4.5575,4.5562,4.562,4.569,4.5762,4.5855,4.593,4.6088,4.6111,4.6197,4.6182,4.6301,4.6195,4.6199,4.6187,4.6183,4.6193,4.6323,4.6326,4.6329,4.6331,0,4.5475,4.5472,4.555,4.5629,4.5694,4.5756,4.5814,4.5862,4.5856,4.5924,4.6022,4.608,4.6194,4.6288,4.6372,4.6402,4.6368,4.6364,4.6394,4.6403,4.64,4.6406,4.6045,4.6357,4.6354,4.6352,4.6351,4.635,4.5675,4.5754,4.5804,4.5893,4.5935,4.599,4.6067,4.6085,4.6166,4.6258,4.6245,4.6356,4.641,4.6518,4.6556,4.6643,4.6603,4.6646,4.6657,4.6668,4.6681,4.6384,4.6658,4.6658,4.6657,4.6656,4.6656,0,4.5949,4.5978,4.606,4.6141,4.6212,4.617,4.6231,4.6294,4.6391,4.6443,4.6517,4.6631,4.6722,4.6751,4.684,4.6905,4.6891,4.6929,4.6926,4.6934,4.6711,4.6678,4.6939,4.6938,4.6938,4.6938,4.6938,4.6938,4.61,4.6234,4.6236,4.639,4.6419,4.6525,4.6565,4.6616,4.6658,4.6786,4.6861,4.6879,4.6923,4.7015,4.7097,4.7104,4.714,4.7185,4.7185,4.6977,4.6949,4.6922,4.689,4.7192,4.7192,4.74,4.7402,4.7404]},{"header":{"parameterUnit":"m.s-1","parameterCategory":1,"la1":30.2991,"la2":30.254,"lo1":-89.0895,"lo2":-89.0444,"dy":0.0017,"dx":0.0017,"nx":28,"ny":28,"refTime":"2024-08-06T21:00:00:Z","depth":0,"parameterNumber":3,"parameterNumberName":"V-component_of_WINDS"},"data":[0,0,0,0,0,0,0,0,0,0,0,0,0,0,0,0,0,0,0,0,0,0,0,0,0,0,0,0,0,0,0,0,0,0,0,0,0,0,0,0,0,0,0,0,0,0,0,0,0,0,0,0,0,0,0,0,0,0,-1.2759,-1.2759,0,-1.2806,-1.2807,-1.2808,-1.2825,-1.2825,-1.2824,-1.2824,-1.2873,-1.2874,-1.2876,0,0,0,0,0,0,0,0,0,0,0,0,0,-1.2683,-1.2684,-1.2759,-1.2759,-1.276,-1.2806,-1.2807,-1.2808,-1.2825,-1.2825,-1.2824,-1.2824,-1.2872,-1.2874,-1.2876,0,0,0,0,0,0,0,0,0,0,0,0,0,-1.2722,-1.2684,-1.2759,-1.2774,-1.2776,-1.2806,-1.2807,-1.2808,-1.2825,-1.2825,-1.2824,-1.2824,-1.2872,-1.2874,-1.2876,-1.2894,0,0,-1.2883,-1.2884,0,0,0,0,0,0,0,0,-1.2719,-1.2724,-1.2771,-1.2773,-1.2775,-1.2809,-1.2798,-1.2837,-1.2825,-1.2806,-1.2824,-1.2824,-1.2852,-1.2856,-1.2865,-1.2897,-1.2899,-1.2883,-1.2884,-1.2885,-1.2886,0,0,0,0,0,0,0,-1.2717,-1.2722,-1.2778,-1.2772,-1.2774,-1.2779,-1.2784,-1.2805,-1.283,-1.2808,-1.2809,-1.2815,-1.2853,-1.2863,-1.2866,-1.29,-1.2883,-1.2885,-1.2886,-1.2887,-1.2949,-1.2949,0,0,0,0,0,0,-1.2711,-1.272,-1.2776,-1.2779,-1.2746,-1.278,-1.2786,-1.2799,-1.283,-1.2834,-1.2815,-1.2815,-1.2859,-1.2864,-1.2868,-1.2892,-1.2885,-1.2887,-1.2888,-1.2949,-1.2949,-1.295,0,0,0,0,0,0,-1.271,-1.2716,-1.2774,-1.275,-1.2758,-1.2782,-1.2796,-1.28,-1.281,-1.2835,-1.2839,-1.2821,-1.2859,-1.2865,-1.2888,-1.2894,-1.2888,-1.289,-1.2948,-1.2949,-1.2949,-1.2939,0,0,0,0,0,0,-1.2707,-1.2715,-1.2723,-1.275,-1.2759,-1.2793,-1.2796,-1.2801,-1.2814,-1.2815,-1.2842,-1.2846,-1.286,-1.2885,-1.289,-1.2897,-1.2892,-1.2948,-1.2949,-1.2949,-1.2939,-1.294,-1.294,0,0,0,0,0,-1.2705,-1.2718,-1.2723,-1.273,-1.2768,-1.2793,-1.2798,-1.2814,-1.2814,-1.2821,-1.2838,-1.2845,-1.2892,-1.2887,-1.2893,-1.29,-1.2948,-1.2948,-1.2949,-1.2939,-1.2939,-1.294,0,0,0,0,0,0,-1.269,-1.2722,-1.2728,-1.275,-1.2769,-1.2796,-1.2806,-1.2814,-1.2833,-1.2833,-1.2852,-1.2858,-1.2879,-1.2892,-1.2885,-1.292,-1.292,-1.2923,-1.2911,-1.2911,-1.2911,-1.2908,-1.2894,0,0,0,0,0,-1.269,-1.2707,-1.2734,-1.2751,-1.276,-1.2781,-1.2793,-1.2804,-1.2824,-1.2832,-1.285,-1.2869,-1.2888,-1.2901,-1.292,-1.2942,-1.2948,-1.295,-1.295,-1.295,-1.2951,-1.2964,-1.2965,-1.2952,-1.2952,-1.2952,0,0,-1.2689,-1.2708,-1.2718,-1.2749,-1.2765,-1.2783,-1.2788,-1.2807,-1.282,-1.2835,-1.2857,-1.2871,-1.2894,-1.2916,-1.2927,-1.2928,-1.2957,-1.2951,-1.2951,-1.2952,-1.2965,-1.2966,-1.2967,-1.2953,-1.2952,-1.2952,0,0,-1.2696,-1.2713,-1.2729,-1.2745,-1.2769,-1.2783,-1.2787,-1.2813,-1.2823,-1.2846,-1.2857,-1.2873,-1.2906,-1.2922,-1.2935,-1.2949,-1.2956,-1.2954,-1.2955,-1.2967,-1.2968,-1.2969,-1.2974,-1.2976,-1.2956,-1.2956,-1.2956,0,-1.2692,-1.2719,-1.2736,-1.2754,-1.2768,-1.2782,-1.2799,-1.2813,-1.2842,-1.2851,-1.2851,-1.2893,-1.291,-1.2936,-1.2939,-1.2949,-1.2954,-1.2951,-1.2967,-1.2968,-1.2969,-1.2974,-1.2976,-1.2955,-1.2955,-1.2956,-1.2956,0,-1.2713,-1.2732,-1.2742,-1.277,-1.2784,-1.2802,-1.2821,-1.2834,-1.2843,-1.2857,-1.2881,-1.2901,-1.2925,-1.2932,-1.2941,-1.296,-1.2959,-1.2963,-1.2964,-1.297,-1.2975,-1.2977,-1.2955,-1.2955,-1.2955,-1.2955,0,0,-1.2712,-1.2749,-1.2753,-1.2766,-1.2794,-1.2808,-1.2827,-1.285,-1.286,-1.288,-1.2896,-1.2923,-1.2927,-1.2941,-1.2953,-1.2963,-1.2973,-1.2966,-1.2967,-1.2966,-1.2995,-1.2991,-1.2993,-1.2978,-1.2979,-1.2979,-1.2993,0,-1.2723,-1.2756,-1.2772,-1.2798,-1.2815,-1.2829,-1.2845,-1.2864,-1.2878,-1.2895,-1.291,-1.293,-1.2933,-1.2942,-1.2953,-1.2969,-1.2979,-1.2969,-1.2993,-1.2994,-1.2987,-1.2996,-1.2993,-1.3004,-1.2995,-1.2995,-1.2995,0,-1.274,-1.276,-1.2787,-1.2813,-1.2821,-1.2835,-1.2858,-1.2874,-1.2896,-1.2905,-1.2921,-1.2932,-1.2952,-1.2952,-1.2979,-1.2972,-1.2983,-1.2992,-1.2993,-1.2996,-1.2995,-1.2999,-1.3008,-1.301,-1.2999,-1.2998,-1.2998,0,-1.2737,-1.277,-1.2791,-1.2802,-1.2832,-1.2842,-1.2855,-1.2877,-1.289,-1.291,-1.2918,-1.294,-1.2952,-1.2969,-1.2986,-1.2984,-1.3012,-1.3013,-1.302,-1.302,-1.3025,-1.3024,-1.3036,-1.3032,-1.3032,-1.3032,-1.3032,0,-1.2747,-1.2763,-1.279,-1.2803,-1.2821,-1.284,-1.2858,-1.2872,-1.2891,-1.2907,-1.2921,-1.2936,-1.2957,-1.2975,-1.2988,-1.3009,-1.3014,-1.3022,-1.3026,-1.3021,-1.302,-1.3028,-1.3028,-1.3033,-1.3033,-1.3033,-1.3033,0,-1.2746,-1.2764,-1.2788,-1.2815,-1.2823,-1.2835,-1.2859,-1.2872,-1.2886,-1.2907,-1.2912,-1.2935,-1.2957,-1.2975,-1.3004,-1.3013,-1.3034,-1.3038,-1.3026,-1.3028,-1.3034,-1.3033,-1.3052,-1.3055,-1.3049,-1.3049,-1.3049,0,-1.2751,-1.2764,-1.2793,-1.2804,-1.2818,-1.2836,-1.285,-1.2868,-1.2882,-1.2908,-1.2918,-1.294,-1.2959,-1.2992,-1.3012,-1.3033,-1.3038,-1.3043,-1.3041,-1.3036,-1.3038,-1.3037,-1.3038,-1.3043,-1.3043,-1.3043,-1.3043,0,-1.2758,-1.2767,-1.2786,-1.2808,-1.2824,-1.2842,-1.2861,-1.2869,-1.2892,-1.2906,-1.2928,-1.2943,-1.2972,-1.2994,-1.3018,-1.3032,-1.3041,-1.3043,-1.3046,-1.3041,-1.3034,-1.3038,-1.3026,-1.3043,-1.3043,-1.3043,-1.3043,-1.3043,-1.2761,-1.2773,-1.2795,-1.2816,-1.2832,-1.2849,-1.2863,-1.2879,-1.2898,-1.2923,-1.2933,-1.2955,-1.2977,-1.301,-1.3024,-1.3042,-1.3043,-1.3048,-1.3049,-1.3049,-1.3048,-1.3031,-1.3046,-1.3046,-1.3046,-1.3046,-1.3047,0,-1.2769,-1.2784,-1.2802,-1.2828,-1.2844,-1.2852,-1.2873,-1.2886,-1.2906,-1.2925,-1.2944,-1.2969,-1.2991,-1.3012,-1.3034,-1.3045,-1.305,-1.305,-1.3049,-1.3052,-1.3046,-1.3041,-1.3046,-1.3046,-1.3046,-1.3046,-1.3046,-1.3046,-1.2775,-1.2795,-1.2807,-1.2836,-1.2851,-1.2873,-1.2884,-1.29,-1.2916,-1.2944,-1.2962,-1.2976,-1.2996,-1.302,-1.304,-1.3046,-1.3054,-1.3053,-1.306,-1.3053,-1.3053,-1.3053,-1.3048,-1.3055,-1.3055,-1.3065,-1.3065,-1.3065]}]]